Location: Eppenbrunn
(49.1158°N, 7.5601°E)
Time: 18:33:59
(UTC+00:00)

SL-08 R/B - Pass Details

Date: 09 April 2020
Orbit: 951 x 1017 km, 82.9° (Epoch: 01 June)

Event Time Altitude Azimuth Distance (km) Brightness Sun altitude
Rises 20:25:19 0° 351° (N) 3,643 8.3 -20.0°
Reaches altitude 10° 20:27:49 10° 353° (N) 2,697 7.5 -20.3°
Maximum altitude 20:34:00 79° 80° (E) 986 4.4 -21.0°
Enters shadow 20:36:45 36° 162° (SSE) 1,497 5.0 -21.4°
